Miscellaneous Local Product
Issued by NWS Hastings, NE

Home | Current Version | Previous Version | Graphics & Text | Print | Product List | Glossary On
Versions: 1 2 3 4 5 6 7 8 9 10 11 12 13 14 15 16 17 18 19 20 21 22 23 24 25 26 27 28 29 30 31 32 33 34 35 36 37 38 39 40 41 42 43 44 45 46 47 48 49 50
000
AXUS43 KGID 250502
MISGRI

GID CWA HOURLY WEATHER ROUNDUP
NATIONAL WEATHER SERVICE HASTINGS NE
1200 AM CDT THU AUG 25 2016

NOTE: "FAIR" INDICATES FEW OR NO CLOUDS BELOW 12,000 FEET WITH NO
SIGNIFICANT WEATHER AND/OR OBSTRUCTIONS TO VISIBILITY.

...SOUTH CENTRAL NEBRASKA...

CITY           SKY/WX    TMP DP  RH WIND       PRES   REMARKS
GRAND ISLAND   PTCLDY    63  55  75 N5        30.12R
HASTINGS       PTCLDY    61  55  81 CALM      30.12S
KEARNEY        CLOUDY    64  55  72 N5        30.12F
ORD            PTCLDY    61  55  81 CALM      30.14S
YORK           CLEAR     57  55  94 NW6       30.10R
AURORA         CLOUDY    58  57  97 NW3       30.11R
LEXINGTON      PTCLDY    59  54  84 N8        30.15S
HOLDREGE       CLOUDY    62  55  77 N3        30.13R
HEBRON         CLOUDY    62  60  96 CALM      30.09R

...NEBRASKA PANHANDLE...

CITY           SKY/WX    TMP DP  RH WIND       PRES   REMARKS
CHADRON        CLOUDY    58  53  84 VRB3      30.20S
ALLIANCE       CLOUDY    56  49  77 NE12      30.22F
SCOTTSBLUFF    MOCLDY    58  48  69 NE14      30.22S
SIDNEY         PTCLDY    53  42  66 SE8       30.23F

...WESTERN AND NORTH CENTRAL NEBRASKA...

CITY           SKY/WX    TMP DP  RH WIND       PRES   REMARKS
VALENTINE      NOT AVBL
AINSWORTH      CLOUDY    61  55  79 CALM      30.17S
ONEILL         CLOUDY    62  53  72 W5        30.14F
BROKEN BOW     PTCLDY    55  53  93 NW3       30.16S
IMPERIAL       PTCLDY    63  44  50 NW3       30.20S
NORTH PLATTE   PTCLDY    57  51  80 CALM      30.18F
MCCOOK         MOCLDY    58  52  80 NW7       30.16R

...EASTERN NEBRASKA...

CITY           SKY/WX    TMP DP  RH WIND       PRES   REMARKS
NORFOLK        CLOUDY    58  55  90 W6        30.10F
TEKAMAH        CLEAR     58  55  90 NW6       30.07R
COLUMBUS       CLOUDY    57  48  72 CALM      30.11R
ALBION         CLOUDY    57  55  91 NW3       30.13R
OMAHA EPPLEY   NOT AVBL
OFFUTT AFB     MOCLDY    66  60  81 E2        30.05R
MILLARD        PTCLDY    65  60  85 CALM      30.06R
LINCOLN        CLEAR     62  60  93 CALM      30.08R
NEBRASKA CITY  CLEAR     65  65 100 CALM      30.06R
BEATRICE       CLOUDY    61  60  96 CALM      30.08R
FALLS CITY     CLOUDY    69  68  96 CALM      30.04R

...NORTHERN KANSAS...

CITY           SKY/WX    TMP DP  RH WIND       PRES   REMARKS
GOODLAND       CLOUDY    56  51  84 N8        30.19S
HILL CITY      MOCLDY    62  54  74 NE7       30.12F
NORTON         CLOUDY    63  52  67 N8        30.12S
SMITH CENTER   MOCLDY    61  55  82 CALM      30.11S
BELOIT         CLEAR     57  55  94 CALM      30.07F
HAYS           CLOUDY    64  52  63 NE8       30.08F
RUSSELL        CLOUDY    63  56  78 NE7       30.06F
CONCORDIA      CLEAR     61  58  90 N5        30.08S
SALINA         CLOUDY    66  63  90 N10       30.07R
TOPEKA         CLOUDY    71  69  93 N5        30.02F



USA.gov is the U.S. government's official web portal to all federal, state and local government web resources and services.